This information is not intended to be used as official crime data. This program does not provide information about all crimes, and excludes specific incidents such as sexual assaults and child abuse.

Disclaimer: The Jacksonville Sheriff's Office makes every effort to produce and publish current and accurate information. No warranties, expressed or implied, are provided for the data herein, its use, or its interpretation. The services provided are for informational purposes only and should not be relied on for any type of legal action.

Note: Calls in red are active.

Last refreshed 11/28 10:23:17

Incident # Dispatched Block Address Signal Call Description Comments
141128824917 11-28 09:49 9800 EVANS RD 32 BURGLAR ALARM - AUDIBLE
141128824918 11-28 09:48 1600 PINEGROVE AVE 13 SUSPICIOUS PERSON
141128824909 11-28 09:44 10900 E APPLE BLOSSOM TRL 9 THEFT
141128824890 11-28 09:44 2200 N LONGREENE RD 32 BURGLAR ALARM - AUDIBLE
141128824895 11-28 09:42 7800 S GULF RD 68T CON GAME/FLIM FLAM TELESERVE
141128824901 11-28 09:41 5600 CORVAIR AVE 11 ABANDONED VEHICLE
141128824903 11-28 09:41 1100 E 9TH ST 10R AUTO THEFT RECOVERY
141128824910 11-28 09:41 4300 W MELISSA CT 20 PROWLER/PEEPING TOM
141128824908 11-28 09:40 7000 SNOWY CANYON DR 32X SILENT ALARM (ROBBERY PANIC OR AWARE)
141128824856 11-28 09:39 500 E BAY ST 10T AUTO THEFT/ATTEMPT/TELESERVE
141128824907 11-28 09:39 2900 PARENTAL HOME RD 32 BURGLAR ALARM - AUDIBLE
141128824904 11-28 09:39 600 CASSAT AVE 21B BURGLARY BUSINESS
141128824893 11-28 09:38 800 DETROIT ST 21R BURGLARY RESIDENCE
141128824874 11-28 09:34 5800 N PEARL ST 32 BURGLAR ALARM - AUDIBLE
141128824892 11-28 09:29 E I10 EXPWY AND S LANE AVE 4 AUTO CRASH
141128824884 11-28 09:22 13800 JAFFA CT 63 DISPUTE
141128824880 11-28 09:19 100 S BUCKMAN BRG 16 ROAD OBSTRUCTION
141128824875 11-28 09:18 9400 SAN JOSE BLVD 32 BURGLAR ALARM - AUDIBLE
141128824870 11-28 09:17 3000 W EDGEWOOD AVE 13 SUSPICIOUS PERSON
141128824872 11-28 09:16 5400 KINKAID RD 32 BURGLAR ALARM - AUDIBLE
141128824868 11-28 09:15 9500 AMARANTE CIR 22 DOMESTIC DISTURBANCE
141128824863 11-28 09:14 13200 CITY STATION DR 1066 CANCEL
141128824860 11-28 09:13 1600 MC CAUL RD 63 DISPUTE
141128824864 11-28 09:12 4400 HODGES BLVD 3T HIT AND RUN CRASH - TELESERVE
141128824862 11-28 09:09 6100 YOUNGERMAN CIR 76 ASSIST OTHER AGENCY
141128824854 11-28 09:04 5300 WESCONNETT BLVD 32 BURGLAR ALARM - AUDIBLE
141128824855 11-28 09:02 J TURNER BUTLER BLVD AND GATE PKWY 12 RECKLESS DRIVER
141128824850 11-28 09:00 5800 W BARTRAM DR 14C VANDALISM CONVEYANCE
141128824852 11-28 09:00 600 COMMERCE CENTER DR 32X SILENT ALARM (ROBBERY PANIC OR AWARE)
141128824849 11-28 09:00 4200 OLDFIELD CROSSING DR 32 BURGLAR ALARM - AUDIBLE
141128824846 11-28 08:56 8400 W GATE PKWY 22 DOMESTIC DISTURBANCE
141128824844 11-28 08:54 9000 ATLANTIC BLVD 11 ABANDONED VEHICLE
141128824840 11-28 08:46 3300 W SEVILLE ST 1066 CANCEL
141128824838 11-28 08:43 3600 CROWN POINT RD 32 BURGLAR ALARM - AUDIBLE
141128824835 11-28 08:41 5200 COMMONWEALTH AVE 37 UNVERIFIED 911 CALL
141128824829 11-28 08:38 4900 PRINCELY AVE 63 DISPUTE
141128824810 11-28 08:32 3600 BLANDING BLVD 63 DISPUTE
141128824824 11-28 08:30 13900 N MAIN ST 9J THEFT JUST OCCURRED
141128824796 11-28 08:29 5500 ADA JOHNSON RD 54 ILLEGALLY PARKED CAR
141128824806 11-28 08:28 200 E 46TH ST 9 THEFT
141128824823 11-28 08:27 GIRVIN RD AND ATLANTIC BLVD 4 AUTO CRASH
141128824814 11-28 08:25 4500 VERONA AVE 1066 CANCEL
141128824815 11-28 08:24 10400 PHILLIPS HWY 11 ABANDONED VEHICLE
141128824816 11-28 08:24 E I10 EXPWY AND FOREST ST 96 ASSIST MOTORIST
141128824812 11-28 08:18 100 JACKSON RD 9T THEFT (TELESERVE)
141128824809 11-28 08:18 2100 MELSON AVE 14CT VANDALISM CONVEYANCE TELESERVE
141128824785 11-28 08:18 8800 YEOMAN DR 21CT BURGLARY CONVEYANCE TELESERVE
141128824803 11-28 08:16 400 PEREGRINE CT 21R BURGLARY RESIDENCE
141128824778 11-28 08:15 11300 S ASTON HALL DR 21C BURGLARY CONVEYANCE
141128824807 11-28 08:14 5300 YERKES ST 32 BURGLAR ALARM - AUDIBLE
141128824792 11-28 08:09 900 W EDGEWOOD AVE 32 BURGLAR ALARM - AUDIBLE
141128824800 11-28 08:04 8800 INLET BLUFF DR 1066 CANCEL
141128824789 11-28 08:03 5900 BEACH BLVD 76 ASSIST OTHER AGENCY
141128824795 11-28 08:02 1700 PLANTERS OAK CT 32 BURGLAR ALARM - AUDIBLE
141128824794 11-28 08:02 1000 KINGS AVE 1066 CANCEL
141128824788 11-28 07:56 1300 S LANE AVE 10 AUTO THEFT
141128824771 11-28 07:54 8800 SAN JOSE BLVD 32 BURGLAR ALARM - AUDIBLE
141128824781 11-28 07:52 I10 EXPWY 12 RECKLESS DRIVER
141128824763 11-28 07:48 2600 FLEMING ST 6388 DISPUTE WITH ASSAULT
141128824739 11-28 07:48 2000 FOREST ST 32 BURGLAR ALARM - AUDIBLE
141128824782 11-28 07:47 3200 SECRET ISLE LN 13 SUSPICIOUS PERSON
141128824769 11-28 07:46 2900 REMINGTON ST 27 MENTALLY ILL PERSON
141128824780 11-28 07:45 4700 PHILLIPS HWY 32X SILENT ALARM (ROBBERY PANIC OR AWARE)
141128824776 11-28 07:44 6500 FT CAROLINE RD 1066 CANCEL
141128824774 11-28 07:44 11700 CENTRAL PKWY 32 BURGLAR ALARM - AUDIBLE
141128824752 11-28 07:43 8500 LONGFORD DR 54 ILLEGALLY PARKED CAR
141128824775 11-28 07:42 8300 BAYCENTER RD 32 BURGLAR ALARM - AUDIBLE
141128824773 11-28 07:40 13700 BEACH BLVD 32 BURGLAR ALARM - AUDIBLE
141128824772 11-28 07:40 BAYMEADOWS RD AND S I295 EXPWY 4 AUTO CRASH
141128824767 11-28 07:38 6800 SOUTHPOINT PKWY 32 BURGLAR ALARM - AUDIBLE
141128824748 11-28 07:36 3700 SOUTEL DR 32 BURGLAR ALARM - AUDIBLE
141128824768 11-28 07:36 2500 GREEN OAK DR 76 ASSIST OTHER AGENCY
141128824749 11-28 07:34 6200 ANVIL RD 21C BURGLARY CONVEYANCE
141128824766 11-28 07:34 2000 INWOOD TER 1066 CANCEL
141128824760 11-28 07:30 1400 W 9TH ST 63 DISPUTE
141128824765 11-28 07:29 5900 RAMONA BLVD 63 DISPUTE
141128824757 11-28 07:28 1200 RIVER BANK CT 63 DISPUTE
141128824762 11-28 07:27 6900 MORSE AVE 3388 DISCHARGING FIREARM AT PERSON
141128824740 11-28 07:26 1200 KINGS RD 63 DISPUTE
141128824761 11-28 07:25 6900 MORSE AVE 33 DISCHARGING OF FIREARM
141128824756 11-28 07:19 5200 BELFORT RD 32 BURGLAR ALARM - AUDIBLE
141128824755 11-28 07:19 1000 S REGAS DR 22 DOMESTIC DISTURBANCE
141128824754 11-28 07:18 2600 EDISON AVE 14R VANDALISM RESIDENCE
141128824746 11-28 07:12 8000 PHILLIPS HWY 13 SUSPICIOUS PERSON
141128824736 11-28 07:12 7000 BERRY AVE 32 BURGLAR ALARM - AUDIBLE
141128824744 11-28 07:12 KINGS RD AND N MYRTLE AVE 6388 DISPUTE WITH ASSAULT
141128824750 11-28 07:09 E I10 EXPWY AND N I95 EXPWY 96 ASSIST MOTORIST
141128824745 11-28 07:08 ATLANTIC BLVD AND SOUTHSIDE BLVD 76 ASSIST OTHER AGENCY
141128824735 11-28 07:04 4700 AVENUE B 32 BURGLAR ALARM - AUDIBLE
141128824738 11-28 07:04 5800 NORMANDY BLVD 54 ILLEGALLY PARKED CAR
141128824733 11-28 06:57 5600 JIMTOM DR 63 DISPUTE
141128824724 11-28 06:57 2600 PHYLLIS ST 21B BURGLARY BUSINESS
141128824730 11-28 06:56 1100 MILNOR ST 63 DISPUTE
141128824731 11-28 06:52 9400 EVESHAM RD 19 ANIMAL INVESTIGATION
141128824722 11-28 06:51 N I295 EXPWY AND S ST JOHNS BLUFF RD 12 RECKLESS DRIVER
141128824725 11-28 06:48 6600 CORPORATE CENTER PKWY 32 BURGLAR ALARM - AUDIBLE
141128824726 11-28 06:48 1900 W 15TH ST 32S BURGLAR ALARM - SILENT
141128824707 11-28 06:47 5100 TAN ST 32 BURGLAR ALARM - AUDIBLE
141128824711 11-28 06:45 5500 S FLORIDA MINING BLVD 32 BURGLAR ALARM - AUDIBLE
141128824717 11-28 06:41 3800 W ORLANDO CIR 20 PROWLER/PEEPING TOM
141128824716 11-28 06:36 11100 SAIL POINT LN 1066 CANCEL
141128824714 11-28 06:33 4200 ST AUGUSTINE RD 1066 CANCEL
141128824708 11-28 06:33 7900 103RD ST 1066 CANCEL
141128824709 11-28 06:29 4300 PABLO OAKS CT 32 BURGLAR ALARM - AUDIBLE
141128824702 11-28 06:22 2100 W 45TH ST 32S BURGLAR ALARM - SILENT
141128824704 11-28 06:21 E I10 EXPWY AND S CHAFFEE RD 16 ROAD OBSTRUCTION
141128824699 11-28 06:20 S I95 EXPWY AND LEM TURNER RD 16 ROAD OBSTRUCTION
141128824684 11-28 06:16 13200 CITY CENTER BLVD 32 BURGLAR ALARM - AUDIBLE
141128824695 11-28 06:10 7300 103RD ST 32 BURGLAR ALARM - AUDIBLE
141128824697 11-28 06:10 N I295 EXPWY AND COMMONWEALTH AVE 12 RECKLESS DRIVER
141128824698 11-28 06:10 10400 THERESA DR 32S BURGLAR ALARM - SILENT
141128824693 11-28 06:07 SAN JOSE BLVD AND HARTLEY RD 76 ASSIST OTHER AGENCY
141128824682 11-28 05:56 2500 SILVER ST 32 BURGLAR ALARM - AUDIBLE
141128824673 11-28 05:53 5800 111TH ST 32 BURGLAR ALARM - AUDIBLE
141128824679 11-28 05:40 2100 W 45TH ST 32S BURGLAR ALARM - SILENT
141128824678 11-28 05:40 2600 S ST JOHNS BLUFF RD 1 IMPAIRED/RECKLESS DRIVER
141128824676 11-28 05:36 5000 BIG ISLAND DR 32 BURGLAR ALARM - AUDIBLE
141128824669 11-28 05:31 AIRPORT RD AND S I95 EXPWY 12 RECKLESS DRIVER
141128824668 11-28 05:30 5400 MONCRIEF RD 32S BURGLAR ALARM - SILENT
141128824666 11-28 05:23 HOOD RD AND OLD ST AUGUSTINE RD 16 ROAD OBSTRUCTION
141128824660 11-28 05:22 5400 VERNA BLVD 11 ABANDONED VEHICLE
141128824661 11-28 05:18 MONROE SMITH RD AND 103RD ST 1 IMPAIRED/RECKLESS DRIVER
141128824655 11-28 05:12 1000 GOLFAIR BLVD 1066 CANCEL
141128824650 11-28 05:08 500 W 61ST ST 63 DISPUTE
141128824648 11-28 04:47 1900 W BEAVER ST 32 BURGLAR ALARM - AUDIBLE
141128824647 11-28 04:45 3900 OLD SUNBEAM RD 63 DISPUTE
141128824646 11-28 04:44 600 W 44TH ST 32 BURGLAR ALARM - AUDIBLE
141128824644 11-28 04:44 1800 DUNN AVE 32 BURGLAR ALARM - AUDIBLE
141128824642 11-28 04:43 8600 JESSE B SMITH CT 32 BURGLAR ALARM - AUDIBLE
141128824641 11-28 04:37 5700 W UNIVERSITY BLVD 32 BURGLAR ALARM - AUDIBLE
141128824629 11-28 04:36 4000 ATLANTIC BLVD 32 BURGLAR ALARM - AUDIBLE
141128824625 11-28 04:36 7400 ATLANTIC BLVD 32 BURGLAR ALARM - AUDIBLE
141128824637 11-28 04:32 2100 EMERSON ST 63 DISPUTE
141128824632 11-28 04:25 4500 RAINER RD 32 BURGLAR ALARM - AUDIBLE
141128824585 11-28 04:23 2900 S SAN PABLO RD 2 63 DISPUTE INVOLVING ALCOHOL
141128824628 11-28 04:19 1000 GOLFAIR BLVD 0 13 ARMED SUSPICIOUS PERSON
141128824627 11-28 04:17 1100 INGLESIDE AVE 13 SUSPICIOUS PERSON
141128824622 11-28 04:14 CAHOON RD AND W RAMONA BLVD 16 ROAD OBSTRUCTION
141128824610 11-28 04:11 1300 BROOKWOOD FOREST BLVD 63 DISPUTE
141128824618 11-28 04:03 10900 BURNT MILL RD 60 SUICIDE OR ATTEMPT
141128824614 11-28 04:01 7200 BEACH BLVD 32 BURGLAR ALARM - AUDIBLE
141128824611 11-28 04:00 2100 S LANE AVE 13 SUSPICIOUS PERSON
141128824613 11-28 03:56 3700 ANVERS BLVD 57 PERSON CALLING FOR HELP
141128824612 11-28 03:56 3200 BEACH BLVD 21B BURGLARY BUSINESS
141128824575 11-28 03:53 3900 ATLANTIC BLVD 64 NOISE COMPLAINT
141128824604 11-28 03:50 8400 NUSSBAUM DR 64 NOISE COMPLAINT
141128824603 11-28 03:47 900 KING ST 3 HIT AND RUN CRASH
141128824600 11-28 03:45 4000 BRICK RD 2 22 DOMESTIC DISTURBANCE
141128824596 11-28 03:40 3500 TOWNSEND BLVD 64 NOISE COMPLAINT
141128824597 11-28 03:36 14700 BARTRAM PARK BLVD 63 DISPUTE
141128824595 11-28 03:35 3700 S ST JOHNS BLUFF RD 32 BURGLAR ALARM - AUDIBLE
141128824592 11-28 03:31 9500 BAYMEADOWS RD 64 NOISE COMPLAINT
141128824588 11-28 03:28 1800 W WILLESDON DR 63 DISPUTE
141128824590 11-28 03:25 14300 SANDY HOOK RD 32 BURGLAR ALARM - AUDIBLE
141128824583 11-28 03:19 15800 BAXTER CREEK DR 13 SUSPICIOUS PERSON
141128824578 11-28 03:16 3500 TOWNSEND BLVD 64 NOISE COMPLAINT
141128824584 11-28 03:16 3200 POST ST 0 63 ARMED DISPUTE
141128824576 11-28 03:11 12000 SCARSDALE DR 21CJ BURGLARY CONVEYANCE JUST OCCURRED
141128824580 11-28 03:04 1100 HORNET CT 64 NOISE COMPLAINT
141128824577 11-28 03:03 W 22ND ST AND PERRY ST 76 ASSIST OTHER AGENCY
141128824568 11-28 02:53 100 N MYRTLE AVE 32 BURGLAR ALARM - AUDIBLE
141128824569 11-28 02:53 7800 N LAURA ST 32 BURGLAR ALARM - AUDIBLE
141128824560 11-28 02:46 900 KING ST 2 DRUNK PERSON
141128824565 11-28 02:46 11900 ATLANTIC BLVD 3 HIT AND RUN CRASH
141128824552 11-28 02:37 KINGS RD AND POWHATTAN ST 4 AUTO CRASH
141128824554 11-28 02:30 6800 103RD ST 2288 DOMESTIC DISPUTE WITH/ASSAULT
141128824551 11-28 02:30 7200 MERRILL RD 14C VANDALISM CONVEYANCE
141128824546 11-28 02:26 4800 W LOFTY PINES CIR 13 SUSPICIOUS PERSON
141128824545 11-28 02:24 10900 BURNT MILL RD 63 DISPUTE
141128824521 11-28 02:22 4800 N MAIN ST 64 NOISE COMPLAINT
141128824542 11-28 02:19 1800 IONIA ST 32 BURGLAR ALARM - AUDIBLE
141128824540 11-28 02:18 5700 BARNHILL DR 32 BURGLAR ALARM - AUDIBLE
141128824539 11-28 02:18 9500 ARLINGTON EXPWY 2 63 DISPUTE INVOLVING ALCOHOL
141128824538 11-28 02:17 8300 SUSIE ST 4 AUTO CRASH
141128824536 11-28 02:15 9700 TOUCHTON RD 32 BURGLAR ALARM - AUDIBLE
141128824529 11-28 02:13 300 N ARLINGTON RD 32 BURGLAR ALARM - AUDIBLE
141128824513 11-28 02:12 2600 S ST JOHNS BLUFF RD 64 NOISE COMPLAINT
141128824512 11-28 02:10 1000 GOLFAIR BLVD 63 DISPUTE
141128824531 11-28 02:09 8000 ATLANTIC BLVD 13 SUSPICIOUS PERSON
141128824527 11-28 02:05 4300 BLANDING BLVD 21B BURGLARY BUSINESS
141128824509 11-28 01:55 N I95 EXPWY AND PHILLIPS HWY 16 ROAD OBSTRUCTION
141128824511 11-28 01:53 1700 ART MUSEUM DR 13 SUSPICIOUS PERSON
141128824515 11-28 01:52 KINGS RD AND BARNETT ST 63 DISPUTE
141128824477 11-28 01:44 900 STARK ST 2288 DOMESTIC DISPUTE WITH/ASSAULT
141128824506 11-28 01:43 700 OAK ARBOR CIR 32 BURGLAR ALARM - AUDIBLE
141128824494 11-28 01:40 1700 ALBERT ST 63 DISPUTE
141128824493 11-28 01:38 10200 W BEAVER ST 64 NOISE COMPLAINT
141128824497 11-28 01:36 2500 RIVERSIDE AVE 13 SUSPICIOUS PERSON
141128824498 11-28 01:35 1500 CESERY BLVD 32 BURGLAR ALARM - AUDIBLE
141128824483 11-28 01:33 6600 HARLOW BLVD 20 PROWLER/PEEPING TOM
141128824482 11-28 01:22 400 E CHURCH ST 63 DISPUTE
141128824475 11-28 01:19 4000 WOODCOCK DR 37 UNVERIFIED 911 CALL
141128824480 11-28 01:17 MARCY ST AND COMMONWEALTH AVE 13 SUSPICIOUS PERSON
141128824478 11-28 01:17 1000 GOLFAIR BLVD 63 DISPUTE
141128824474 11-28 01:15 JACKSON RD AND LONE STAR RD 1 IMPAIRED/RECKLESS DRIVER
141128824479 11-28 01:13 5200 WESTCHASE CT 6388 DISPUTE WITH ASSAULT
141128824466 11-28 01:08 2300 S CHAFFEE RD 1 IMPAIRED/RECKLESS DRIVER
141128824473 11-28 01:08 2400 W 25TH ST 32X SILENT ALARM (ROBBERY PANIC OR AWARE)
141128824469 11-28 01:04 4200 W MONCRIEF RD 22 DOMESTIC DISTURBANCE
141128824459 11-28 01:02 8700 NEWTON RD 1066 CANCEL
141128824468 11-28 01:02 700 OAK ST 13 SUSPICIOUS PERSON
141128824467 11-28 01:02 4600 AMHERST ST 32 BURGLAR ALARM - AUDIBLE
141128824460 11-28 00:59 2100 N ARMSDALE RD 32 BURGLAR ALARM - AUDIBLE
141128824461 11-28 00:58 1400 COMBS RD 63 DISPUTE
141128824462 11-28 00:58 1700 ALBERT ST 64 NOISE COMPLAINT
141128824454 11-28 00:57 EMERSON ST AND S I95 EXPWY 3 HIT AND RUN CRASH
141128824455 11-28 00:57 3100 PEACH DR 2288 DOMESTIC DISPUTE WITH/ASSAULT
141128824430 11-28 00:54 10200 W BEAVER ST 64 NOISE COMPLAINT
141128824431 11-28 00:51 700 N EDGEWOOD AVE 3 HIT AND RUN CRASH
141128824452 11-28 00:51 8000 N LE HAVRE DR 13 SUSPICIOUS PERSON
141128824451 11-28 00:49 9500 REGENCY SQUARE BLVD 32 BURGLAR ALARM - AUDIBLE
141128824446 11-28 00:46 8700 SOUTHSIDE BLVD 61 FIGHT
141128824445 11-28 00:43 WILEY RD AND MUNCIE AVE 64 NOISE COMPLAINT
141128824441 11-28 00:41 9000 MERRILL RD 32 BURGLAR ALARM - AUDIBLE
141128824440 11-28 00:38 8700 SOUTHSIDE BLVD 63 DISPUTE
141128824438 11-28 00:35 11200 SAN JOSE BLVD 76 ASSIST OTHER AGENCY
141128824436 11-28 00:34 2900 SRA1A HWY 64 NOISE COMPLAINT
141128824435 11-28 00:32 10500 W BALMORAL CIR 76 ASSIST OTHER AGENCY
141128824433 11-28 00:27 2000 EMERSON ST 32 BURGLAR ALARM - AUDIBLE
141128824417 11-28 00:26 5100 W 12TH ST 2 63 DISPUTE INVOLVING ALCOHOL
141128824420 11-28 00:24 7000 HALLOCK ST 2 22 DOMESTIC DISTURBANCE
141128824423 11-28 00:22 1100 KENDALL TOWN BLVD 64 NOISE COMPLAINT
141128824415 11-28 00:21 7600 VANDALAY DR 2 22 DOMESTIC DISTURBANCE
141128824424 11-28 00:19 8600 A C SKINNER PKWY 64 NOISE COMPLAINT
141128824414 11-28 00:16 1000 GOLFAIR BLVD 1066 CANCEL
141128824416 11-28 00:16 600 CESERY BLVD 32S BURGLAR ALARM - SILENT
141128824406 11-28 00:15 N RIDGEWAY RD AND WENDING DR 33 DISCHARGING OF FIREARM
141128824419 11-28 00:15 7700 HOMEWOOD DR 2288 DOMESTIC DISPUTE WITH/ASSAULT
141128824413 11-28 00:10 8700 SOUTHSIDE BLVD 63 DISPUTE
141128824412 11-28 00:09 600 STOCKTON ST 9 THEFT
141127824405 11-28 00:08 5500 RICKER RD 13 SUSPICIOUS PERSON
141127824404 11-28 00:00 100 N HALSEMA RD 12 RECKLESS DRIVER
141127824399 11-27 23:56 9300 103RD ST 5388 ASSAULT INVOLVING INJURY
141127824359 11-27 23:54 7200 BLANDING BLVD 32 BURGLAR ALARM - AUDIBLE
141127824396 11-27 23:53 8000 ATLANTIC BLVD 76 ASSIST OTHER AGENCY
141127824385 11-27 23:52 1400 WINDLE ST 2 DRUNK PERSON
141127824390 11-27 23:49 N I295 EXPWY AND DUVAL RD 12 RECKLESS DRIVER
141127824392 11-27 23:49 FT CAROLINE RD AND EVEROSS RD 4 AUTO CRASH
141127824386 11-27 23:48 5900 BEACH BLVD 32 BURGLAR ALARM - AUDIBLE
141127824361 11-27 23:48 6000 ROOSEVELT BLVD 22 DOMESTIC DISTURBANCE
141127824295 11-27 23:45 7600 N KNOLL DR 64 NOISE COMPLAINT
141127824383 11-27 23:43 1400 WONDERWOOD DR 0 63 ARMED DISPUTE
141127824343 11-27 23:41 3200 SHADOW CREEK RD 64 NOISE COMPLAINT
141127824381 11-27 23:41 1900 W 24TH ST 2288 DOMESTIC DISPUTE WITH/ASSAULT
141127824382 11-27 23:41 400 E CHURCH ST 2 63 DISPUTE INVOLVING ALCOHOL
141127824380 11-27 23:39 2100 W 16TH ST 22 DOMESTIC DISTURBANCE
141127824329 11-27 23:39 10400 MONACO DR 63 DISPUTE
141127824379 11-27 23:38 8300 S OLD KINGS RD 64 NOISE COMPLAINT
141127824370 11-27 23:34 7900 E BAYMEADOWS CIR 13 SUSPICIOUS PERSON
141127824378 11-27 23:33 TOWNSEND BLVD AND HIELO DR 6388 DISPUTE WITH ASSAULT
141127824374 11-27 23:30 N I295 EXPWY AND COLLINS RD 13 SUSPICIOUS PERSON
141127824368 11-27 23:28 N I295 EXPWY AND MERRILL RD 12 RECKLESS DRIVER
141127824364 11-27 23:27 8200 DIX ELLIS TRL 22 DOMESTIC DISTURBANCE
141127824365 11-27 23:26 11100 SAN JOSE BLVD 76 ASSIST OTHER AGENCY
141127824340 11-27 23:19 900 STARK ST 63 DISPUTE
141127824352 11-27 23:19 5700 BARNHILL DR 32 BURGLAR ALARM - AUDIBLE
141127824302 11-27 23:19 12200 COCONUT GROVE CT 22 DOMESTIC DISTURBANCE
141127824354 11-27 23:18 2400 SPRING PARK RD 63 DISPUTE
141127824344 11-27 23:17 9900 BEACH BLVD 32 BURGLAR ALARM - AUDIBLE
141127824347 11-27 23:17 6800 SOUTHPOINT PKWY 32 BURGLAR ALARM - AUDIBLE
141127824335 11-27 23:17 1800 BROADWAY AVE 4 AUTO CRASH
141127824351 11-27 23:16 10700 SPURS CT 27 MENTALLY ILL PERSON
141127824353 11-27 23:16 7200 N RIDGEWAY RD 2288 DOMESTIC DISPUTE WITH/ASSAULT
141127824348 11-27 23:14 RICHARD ST AND DUPRO DR 13 SUSPICIOUS PERSON
141127824345 11-27 23:12 800 GOLFAIR BLVD 63 DISPUTE
141127824337 11-27 23:07 5600 COLLINS RD 33 DISCHARGING OF FIREARM
141127824310 11-27 23:06 10900 E APPLE BLOSSOM TRL 22 DOMESTIC DISTURBANCE
141127824336 11-27 23:04 4500 KENNDLE RD 22 DOMESTIC DISTURBANCE
141127824333 11-27 23:02 2800 POST ST 4 AUTO CRASH
141127824331 11-27 23:02 9000 MERRILL RD 32 BURGLAR ALARM - AUDIBLE
141127824328 11-27 23:00 2100 N ARMSDALE RD 1066 CANCEL
141127824326 11-27 22:59 7900 N WINTERWOOD CIR 32 BURGLAR ALARM - AUDIBLE
141127824316 11-27 22:58 100 W 43RD ST 10 AUTO THEFT
141127824312 11-27 22:57 100 N HALSEMA RD 12 RECKLESS DRIVER
141127824322 11-27 22:57 1100 BERT RD 64 NOISE COMPLAINT
141127824300 11-27 22:56 800 BLAIR RD 32 BURGLAR ALARM - AUDIBLE
141127824324 11-27 22:56 LEM TURNER RD AND N I295 EXPWY 4 53 TRAFFIC CRASH PERSON INJURED
141127824323 11-27 22:56 7800 N CHERRY BLOSSOM DR 2288 DOMESTIC DISPUTE WITH/ASSAULT
141127824293 11-27 22:55 3000 IMPERIAL ST 21R BURGLARY RESIDENCE
141127824321 11-27 22:54 4700 WALGREEN RD 32 BURGLAR ALARM - AUDIBLE
141127824317 11-27 22:53 13000 LEM TURNER RD 4 53 TRAFFIC CRASH PERSON INJURED
141127824318 11-27 22:52 4300 S PLAZA GATE LN 64 NOISE COMPLAINT
141127824315 11-27 22:51 ALBERT ST AND A PHILIP RANDOLPH BLVD 96 ASSIST MOTORIST
141127824309 11-27 22:51 E 24TH ST AND EVERGREEN AVE 19 ANIMAL INVESTIGATION
141127824303 11-27 22:50 2600 JONES RD 61 FIGHT
141127824311 11-27 22:47 4600 ARLON LN 64 NOISE COMPLAINT
141127824257 11-27 22:47 1300 MARSH HEN DR 64 NOISE COMPLAINT
141127824305 11-27 22:44 W 13TH ST AND PALAFOX ST 33 DISCHARGING OF FIREARM
141127824255 11-27 22:44 10500 LEM TURNER RD 64 NOISE COMPLAINT
141127824301 11-27 22:42 2400 W WHITE HORSE RD 6388 DISPUTE WITH ASSAULT
141127824299 11-27 22:41 3700 W FIDDLERS CREEK RD 2 63 DISPUTE INVOLVING ALCOHOL
141127824284 11-27 22:39 6400 ARGYLE FOREST BLVD 1066 CANCEL
141127824294 11-27 22:39 900 BERT RD 63 DISPUTE
141127824240 11-27 22:39 10100 WOOD DOVE WAY 14C VANDALISM CONVEYANCE
141127824289 11-27 22:35 4700 POLARIS ST 1066 CANCEL
141127824281 11-27 22:35 1200 S BRIARCLIFF RD 37 UNVERIFIED 911 CALL
141127824287 11-27 22:33 J TURNER BUTLER BLVD AND S SAN PABLO RD 12 RECKLESS DRIVER
141127824276 11-27 22:26 5700 W UNIVERSITY BLVD 32 BURGLAR ALARM - AUDIBLE
141127824279 11-27 22:25 S I295 EXPWY AND BLANDING BLVD 96 ASSIST MOTORIST
141127824277 11-27 22:24 9500 CROXLEY CT 79T OBSCENE OR THREATENING COMM TELESERVE
141127824265 11-27 22:23 4800 LYNBROOK DR 56 JUVENILE COMPLAINT
141127824261 11-27 22:21 10800 DUNNOTAR RD 32 BURGLAR ALARM - AUDIBLE
141127824262 11-27 22:21 2600 UNIVERSITY BLVD 64 NOISE COMPLAINT
141127824233 11-27 22:20 1100 KENDALL TOWN BLVD 63 DISPUTE
141127824214 11-27 22:18 11400 SARASOTA LN 2 22 DOMESTIC DISTURBANCE
141127824220 11-27 22:16 9300 103RD ST 64 NOISE COMPLAINT
141127824260 11-27 22:16 W I10 EXPWY AND S CHAFFEE RD 3 53 HIT AND RUN CRASH W/FIRE
141127824244 11-27 22:16 200 E 20TH ST 22 DOMESTIC DISTURBANCE
141127824248 11-27 22:16 100 S BUCKMAN BRG 96 ASSIST MOTORIST
141127824253 11-27 22:14 100 N BUCKMAN BRG 96 ASSIST MOTORIST
141127824235 11-27 22:14 3500 UNIVERSITY BLVD 32 BURGLAR ALARM - AUDIBLE
141127824241 11-27 22:13 4600 RIVER CITY DR 9J THEFT JUST OCCURRED
141127824252 11-27 22:12 W I10 EXPWY AND S CHAFFEE RD 4 53 TRAFFIC CRASH PERSON INJURED
141127824222 11-27 22:11 3600 MARSH CREEK DR 32 BURGLAR ALARM - AUDIBLE
141127824247 11-27 22:09 11700 PALM LAKE DR 64 NOISE COMPLAINT
141127824246 11-27 22:09 1000 KINGS AVE 32 BURGLAR ALARM - AUDIBLE
141127824237 11-27 22:08 2300 HIRSCH AVE 33 DISCHARGING OF FIREARM
141127824236 11-27 22:06 1100 PALMETTO ST 21R BURGLARY RESIDENCE
141127824225 11-27 22:05 5700 W UNIVERSITY BLVD 32 BURGLAR ALARM - AUDIBLE
141127824231 11-27 22:05 1300 DAKAR ST 2 63 DISPUTE INVOLVING ALCOHOL
141127824230 11-27 22:04 N EDGEWOOD AVE AND W 12TH ST 4 AUTO CRASH
141127824211 11-27 22:02 3600 CASCADE RD 64 NOISE COMPLAINT
141127824196 11-27 22:01 8500 LONGFORD DR 63 DISPUTE
141127824223 11-27 22:00 1200 BROOKWOOD FOREST BLVD 76 ASSIST OTHER AGENCY